Location: Newark
(34.6283°N, 36.0776°E)
Time: 23:17:49
(UTC+00:00)

Tiros 1 - Pass Details

Date: 24 October 2019
Orbit: 630 x 664 km, 48.4° (Epoch: 21 November)

Event Time Altitude Azimuth Distance (km) Brightness Sun altitude
Exits shadow 01:53:41 17° 352° (N) 1,665 9.2 -24.2°
Maximum altitude 01:55:08 19° 15° (NNE) 1,560 9.3 -24.0°
Drops below altitude 10° 01:58:34 10° 61° (ENE) 2,080 10.6 -23.2°
Sets 02:01:32 0° 79° (ENE) 2,991 12.0 -22.6°
